RH
86 84 78 81 79 72 95 100 99 99 96 98 99 97 87 53 58 58 64 70 86 85 61 43 40 36 26 19 20 42 38 48 58 51 40 32 36 41 44 55 61 72 54 37
84 83 77 77 73 78 92 98 98 100 89 97 98 94 90 57 62 61 82 88 84 76 80 88 42 36 25 21 22 29 36 52 57 50 48 48 46 41 40 42 67 48 64 39
86 78 74 78 88 81 84 97 99 100 99 91 90 98 86 82 66 73 61 70 62 69 94 59 61 43 37 24 30 23 33 43 43 42 30 45 59 46 43 49 65 47 47 36
86 82 82 83 85 99 95 98 97 89 96 97 91 78 78 84 70 62 65 69 81 81 88 95 73 56 43 48 36 37 40 50 48 38 34 34 34 46 45 49 49 56 39 36
90 92 97 97 96 98 100 95 96 96 80 79 95 83 82 76 65 57 72 70 67 68 94 90 77 52 65 47 58 44 43 66 51 61 47 40 50 36 39 44 42 42 38 38
99 98 96 96 100 100 100 100 95 69 78 85 95 86 71 68 56 56 50 56 65 90 70 57 74 90 78 71 71 66 52 55 79 75 54 58 70 51 46 45 42 42 52 40
100 98 82 86 96 100 100 100 94 83 86 94 86 74 71 66 58 63 62 57 65 51 67 68 84 97 92 82 83 86 65 59 64 77 76 96 55 35 34 46 44 42 42 39
88 96 99 79 91 99 100 100 100 79 76 77 77 69 73 64 56 61 56 54 53 58 63 88 100 98 99 87 81 90 87 62 87 96 98 65 57 67 58 54 51 39 39 36
93 98 99 93 95 99 99 100 99 80 76 80 62 74 68 78 76 76 72 60 64 63 80 97 97 93 80 100 100 80 87 96 80 100 98 93 65 53 49 52 73 49 45 44
98 96 97 95 96 100 100 99 100 90 79 71 62 76 73 61 69 77 70 64 79 76 97 97 98 99 89 95 91 100 99 100 98 99 99 87 65 46 48 78 63 53 52 46
95 99 88 92 94 100 100 100 100 96 89 89 67 64 63 64 67 82 79 81 88 98 97 99 98 99 93 96 96 98 95 98 100 100 99 90 55 53 64 58 40 38 53 49
89 88 86 86 96 100 100 100 100 93 75 99 88 75 64 60 60 62 82 74 85 78 91 100 99 100 99 88 90 93 98 86 95 88 82 64 49 48 47 34 36 34 52 55
99 96 97 96 100 99 96 99 100 96 99 100 100 98 92 82 68 58 73 82 79 83 88 96 99 100 91 96 92 97 90 79 94 85 72 70 50 43 33 33 29 31 36 53
100 100 98 100 100 99 88 91 79 64 76 98 100 97 85 76 72 66 67 77 90 99 92 99 100 100 94 88 81 88 82 83 89 86 73 56 54 45 40 32 29 28 36 40
100 100 99 98 100 99 83 82 78 66 51 95 99 99 93 87 85 87 60 96 100 99 98 100 100 96 97 97 90 96 84 84 86 87 71 64 58 48 41 41 34 30 34 41
99 100 99 98 98 98 99 100 92 76 66 82 96 100 100 100 97 99 100 99 100 99 100 98 99 97 91 98 97 74 77 70 65 78 59 59 52 50 48 42 36 36 35 36
100 100 100 99 100 96 83 89 85 73 59 77 96 97 97 100 100 100 100 100 100 99 100 100 99 99 94 97 86 67 73 66 68 59 55 57 50 46 44 39 40 41 43 46
100 100 100 100 100 100 96 90 93 86 77 98 97 94 99 99 99 99 100 100 100 99 99 100 100 100 100 99 78 61 65 70 68 62 54 50 49 45 46 41 42 44 45 46
100 100 100 99 100 99 100 100 100 99 98 96 91 91 94 100 99 99 99 99 97 99 97 96 99 97 97 79 76 63 60 65 63 63 55 52 47 48 48 46 45 43 48 47
100 99 99 98 99 99 99 99 99 100 99 93 89 92 94 97 96 95 92 97 95 95 92 99 97 89 76 69 66 66 46 54 58 59 64 56 58 52 50 46 43 39 40 39
100 98 99 99 99 97 97 98 97 96 97 95 97 85 93 96 89 91 92 92 92 94 91 94 90 85 73 59 51 46 47 45 51 52 52 49 44 48 48 44 38 35 34 31
97 96 99 99 96 87 88 97 91 90 88 96 95 97 90 99 88 90 96 90 90 86 79 87 78 72 55 52 51 38 34 44 50 53 49 48 48 45 39 49 54 45 39 32
75 72 91 96 90 83 86 100 90 96 87 94 96 98 98 99 92 95 93 94 92 72 82 76 77 66 59 46 39 43 44 50 52 50 48 46 46 41 35 46 50 45 32 27
50 77 82 80 88 80 74 73 81 87 90 87 95 98 95 98 93 90 92 90 78 92 91 74 63 58 56 45 50 56 56 51 48 46 46 47 44 44 43 40 35 30 33 36
60 69 89 98 94 94 97 97 92 94 88 92 97 97 91 95 95 95 89 96 90 85 83 75 73 66 47 51 51 52 47 49 46 44 44 46 46 43 40 36 33 38 39 38
69 81 91 94 90 97 97 99 98 100 99 98 98 94 95 93 94 93 90 87 83 75 79 82 73 53 46 47 51 52 47 46 43 46 48 49 47 42 38 39 41 41 38 38
83 94 98 97 94 95 99 95 100 98 98 94 93 92 87 90 91 74 74 85 79 94 96 86 60 43 40 42 43 46 47 45 46 47 50 48 45 43 43 43 45 43 42 42
Wind_Speed
32 30 27 27 26 24 27 34 10 20 37 15 4 13 10 19 16 28 14 10 9 14 10 20 23 27 22 19 22 32 27 4 7 16 4 18 25 23 25 10 11 6 10 23
34 32 31 29 30 28 31 31 22 26 43 14 11 7 11 19 15 19 18 18 13 12 18 9 23 23 22 13 20 24 24 12 8 7 7 9 26 22 21 18 1 22 10 10
33 33 34 35 33 35 36 20 6 11 35 27 19 9 16 20 26 12 17 12 24 22 12 17 8 21 9 24 12 30 23 15 28 25 30 10 13 23 25 19 12 23 30 16
35 37 40 40 40 41 45 29 10 11 7 18 21 22 13 22 17 21 18 11 18 17 18 19 27 19 12 6 14 17 18 26 21 28 9 14 24 22 27 30 35 19 24 29
40 43 42 41 44 46 55 23 12 24 8 19 27 28 24 24 22 16 22 24 18 26 24 13 8 21 5 13 5 13 18 12 21 24 22 23 15 23 29 36 33 36 26 22
41 43 42 44 45 50 51 40 35 27 13 16 19 22 31 31 26 25 27 26 25 19 29 36 24 17 6 4 2 8 17 16 7 20 20 12 20 31 23 25 30 26 30 22
39 43 46 45 42 46 53 39 41 22 13 17 23 32 31 30 28 29 28 34 17 36 20 17 13 14 6 9 7 2 8 21 12 8 9 17 20 12 25 25 23 25 26 16
36 42 46 48 43 45 47 37 42 25 17 17 16 24 27 26 29 24 24 25 43 27 25 10 10 13 6 16 17 14 5 16 8 9 12 7 15 5 8 15 26 27 28 23
33 30 30 42 40 42 45 35 61 38 19 17 39 22 21 17 17 16 20 30 26 26 8 13 13 11 12 7 4 20 21 8 13 5 10 15 3 14 9 4 18 9 17 24
30 24 21 30 35 39 43 36 57 34 15 14 33 18 23 32 18 14 12 22 13 17 8 15 8 6 8 9 10 6 9 6 16 8 7 8 5 5 15 12 0 2 7 19
26 22 24 28 29 34 45 39 49 41 12 18 23 28 22 22 27 11 8 7 10 4 10 6 6 7 9 7 5 5 12 9 5 4 6 16 7 5 15 1 2 3 3 12
9 9 20 30 34 48 40 31 44 33 23 11 16 20 24 38 37 26 13 7 4 10 7 3 4 3 4 11 9 4 6 6 7 10 6 3 13 1 7 4 1 4 2 7
5 3 4 22 51 48 41 36 38 32 20 13 15 15 16 18 25 28 16 11 11 10 7 3 2 7 5 6 6 5 5 2 3 3 5 6 7 10 7 8 2 1 1 8
12 14 23 38 40 38 43 31 27 22 13 4 2 13 15 13 15 12 17 24 18 16 19 3 5 3 3 4 4 4 5 8 6 3 3 1 8 14 13 10 8 5 6 8
22 28 33 34 33 32 30 26 21 17 11 3 5 11 14 13 14 19 18 19 20 12 7 3 3 3 4 2 1 4 8 7 7 4 6 2 5 16 17 17 18 14 13 11
13 30 35 37 26 24 29 6 18 17 15 8 4 3 7 10 13 15 15 21 18 9 5 4 5 9 3 5 4 5 19 20 15 4 16 15 7 7 19 18 16 14 15 18
8 31 37 30 31 27 10 8 15 25 20 5 2 0 3 5 5 5 8 12 6 7 5 4 2 3 4 2 4 5 21 27 24 21 15 4 10 7 15 17 17 18 17 19
11 21 26 24 26 20 11 6 20 25 14 7 3 2 2 7 4 3 3 2 4 4 2 3 2 2 1 4 6 5 16 20 24 21 18 10 15 9 16 18 24 25 24 25
18 21 18 24 17 6 14 17 23 19 7 4 2 5 4 6 2 2 1 1 2 3 2 2 2 3 4 6 8 14 18 20 19 22 16 13 18 19 21 25 26 30 29 29
30 24 5 4 8 23 18 7 2 3 3 3 2 5 3 5 3 1 1 1 1 2 1 2 3 3 9 7 8 17 22 21 21 24 13 18 21 27 28 28 29 30 33 33
4 4 4 18 19 5 4 2 2 2 2 1 2 3 4 2 2 2 2 1 1 1 2 2 2 3 3 13 15 11 16 18 18 24 26 24 26 32 31 29 30 33 33 29
2 10 11 6 4 2 3 2 3 2 3 4 4 3 5 4 3 2 2 0 1 2 2 1 3 3 4 6 13 13 14 19 21 21 21 20 24 30 34 34 29 27 29 28
7 4 3 1 1 5 3 4 2 2 4 6 5 3 4 3 3 2 1 2 2 2 2 3 3 2 3 8 10 12 16 20 22 20 21 23 29 34 40 30 28 28 29 27
1 3 3 2 0 0 1 2 3 2 5 10 7 2 2 3 2 2 2 1 2 2 2 3 2 5 7 11 14 20 21 22 22 23 23 24 29 30 25 27 32 31 27 24
2 2 1 1 2 2 2 6 6 4 12 12 6 4 2 2 2 1 2 2 4 4 2 2 4 1 11 15 18 21 22 22 24 24 23 24 25 29 32 31 31 27 24 23
2 4 2 1 2 2 2 5 5 7 14 8 5 2 2 1 1 2 3 3 4 1 1 4 2 11 16 19 22 24 26 27 28 25 25 26 29 35 35 33 30 26 23 23
3 2 4 3 4 2 3 6 6 9 4 2 2 3 2 3 0 2 3 3 2 3 3 4 9 20 23 23 23 23 24 26 27 29 29 32 34 33 33 31 26 24 21 19
Wind_Direction
279 267 257 250 245 235 224 220 223 200 200 200 192 217 189 218 219 226 246 280 227 236 269 216 216 223 212 205 196 196 211 198 195 204 197 214 201 202 201 200 210 238 258 257
277 266 254 248 244 228 219 217 218 188 188 210 206 193 207 218 203 209 195 216 247 224 251 249 224 226 226 234 196 201 197 216 206 229 266 214 215 216 215 215 183 241 232 251
272 265 258 252 242 229 216 217 197 199 192 203 205 195 204 207 212 240 210 215 219 235 271 229 266 229 229 225 227 206 185 208 209 219 229 155 211 210 218 211 228 243 235 250
264 262 261 254 244 230 210 206 213 192 216 195 195 206 204 210 215 207 213 238 229 223 238 252 234 253 234 260 223 207 196 216 217 234 237 205 213 211 212 215 227 221 254 242
268 265 262 253 245 234 208 201 186 190 212 181 199 202 208 201 216 206 214 231 224 227 244 216 271 235 247 222 201 195 199 221 222 236 236 242 255 233 218 222 224 238 245 246
275 266 257 249 244 230 209 199 202 181 200 192 194 205 211 210 205 213 232 219 230 236 233 231 241 295 164 242 256 208 201 203 169 235 227 239 252 232 231 231 226 231 235 240
286 271 257 246 238 232 221 201 184 193 196 189 202 202 206 209 208 213 214 229 236 228 250 243 221 247 253 245 268 183 229 207 206 228 161 214 249 200 225 228 234 231 247 239
289 285 255 238 237 232 228 211 189 188 202 195 199 205 200 210 213 221 223 223 226 228 228 238 240 230 274 247 228 249 245 211 200 201 210 280 250 191 178 202 238 232 237 239
298 292 248 226 232 225 220 211 191 187 189 198 196 192 190 193 202 224 240 235 232 225 226 222 233 217 211 234 223 216 221 274 199 169 215 233 307 191 190 120 260 202 219 235
295 279 236 222 224 221 213 204 189 191 182 167 180 183 190 197 197 216 230 230 236 219 237 235 212 223 171 216 214 163 193 208 210 186 207 265 231 145 148 185 129 340 243 235
291 251 228 222 222 222 189 180 179 180 153 162 187 186 178 191 202 200 192 174 210 171 224 238 185 208 201 176 179 180 185 171 174 163 207 249 151 135 181 116 356 304 241 227
321 247 248 237 223 190 179 157 169 173 153 152 180 182 195 205 201 200 186 222 147 193 199 230 246 167 169 169 226 172 210 195 172 194 210 157 191 185 177 87 40 335 260 211
280 354 93 152 157 160 161 135 158 160 124 114 143 150 154 172 199 206 202 236 225 236 237 239 239 252 152 177 196 126 214 144 162 131 196 211 201 223 179 186 155 274 242 197
165 154 140 146 145 148 154 151 145 146 118 102 116 153 164 180 189 205 230 236 239 253 242 192 236 262 261 190 171 146 140 146 173 260 252 188 225 225 208 203 215 230 182 191
170 158 155 147 151 159 159 157 152 146 123 119 148 187 198 195 200 220 231 240 227 230 221 174 242 207 150 304 144 169 168 166 186 211 169 163 226 219 211 203 211 203 187 169
189 179 166 168 158 156 157 119 173 168 166 130 145 183 184 206 222 236 243 239 229 210 270 184 220 249 221 163 195 206 176 178 188 164 195 201 223 206 202 203 201 198 199 187
164 177 179 184 158 157 162 150 161 185 194 98 90 249 218 207 200 222 219 207 187 204 222 217 169 259 208 161 203 179 186 189 189 207 176 178 204 208 188 196 183 179 170 166
149 126 174 171 176 169 171 125 158 171 161 147 135 170 196 186 195 196 186 170 171 201 246 215 194 39 231 224 222 174 182 179 198 191 192 201 199 191 179 180 168 157 158 162
156 159 152 132 145 122 129 148 161 161 158 136 142 159 183 166 175 145 152 168 205 244 227 253 220 151 228 229 190 189 168 173 190 191 192 182 181 171 170 169 164 159 157 160
141 142 95 72 90 119 133 118 87 89 43 61 98 140 137 161 158 110 184 252 234 216 61 330 250 231 237 236 218 205 192 186 180 152 144 154 149 160 164 167 167 160 155 152
40 65 71 129 131 89 66 89 97 96 75 113 120 120 123 177 153 156 210 211 258 230 122 260 272 264 252 195 198 191 188 190 188 198 185 185 185 170 161 163 158 153 149 148
79 109 104 93 73 73 102 69 127 173 170 173 145 143 140 142 147 138 176 208 310 213 145 186 246 251 270 181 186 185 182 182 178 187 180 178 178 171 161 150 153 159 170 162
91 87 87 103 329 54 115 150 171 159 167 174 165 139 124 123 115 86 131 187 232 148 235 240 245 307 268 149 165 161 167 174 173 168 169 165 167 168 165 168 180 172 159 157
104 115 79 156 331 228 183 159 144 156 141 153 120 102 110 110 88 129 146 163 195 231 236 249 288 287 120 142 159 151 149 159 153 153 157 157 165 170 169 158 155 155 152 154
55 82 110 117 99 88 101 118 111 111 150 136 104 67 87 120 144 203 126 193 230 221 224 242 310 241 137 147 149 150 147 154 152 153 155 156 158 155 152 152 151 151 151 154
49 47 73 97 124 108 125 108 106 121 135 108 92 107 122 156 143 154 210 198 238 254 245 316 125 141 136 137 140 144 145 148 144 149 150 150 152 150 146 147 150 153 156 159
62 73 79 104 89 97 106 125 118 126 108 95 120 131 177 109 252 228 196 234 325 340 9 46 150 138 131 129 127 130 134 134 136 138 142 145 145 144 147 149 152 155 158 164